AZU4254 SBRF-SBFZ

Flight info

Callsign AZU4254
Flight time 0h 57m
Altitude 32000
Route IROSI UZ81 TENUB
Aircraft E195/M-SDE3GILORVW/S

Departure

Time 2026-04-27 17:39
Airport Recife/Guararapes - Gilberto Freyre International Airport (SBRF)

Arrival

Time 2026-04-27 18:36
Airport Pinto Martins International Airport (SBFZ)
Time Latitude Longitude Altitude Speed Heading
2026-04-27 17:19 -8.13141 -34.91918 45 ft 0 kts 72°
2026-04-27 17:31 -8.13143 -34.91923 43 ft 2 kts 72°
2026-04-27 17:31 -8.13148 -34.91939 43 ft 2 kts 71°
2026-04-27 17:31 -8.13153 -34.91955 42 ft 2 kts 71°
2026-04-27 17:32 -8.13158 -34.91971 43 ft 2 kts 64°
2026-04-27 17:32 -8.13185 -34.91984 42 ft 2 kts 348°
2026-04-27 17:32 -8.13196 -34.91982 43 ft 1 kts 343°
2026-04-27 17:33 -8.13198 -34.91981 43 ft 0 kts 343°
2026-04-27 17:34 -8.13197 -34.91981 43 ft 1 kts 343°
2026-04-27 17:34 -8.13181 -34.91986 41 ft 4 kts 342°
2026-04-27 17:34 -8.13145 -34.91998 42 ft 6 kts 342°
2026-04-27 17:34 -8.13098 -34.92014 45 ft 8 kts 342°
2026-04-27 17:35 -8.13041 -34.92032 46 ft 9 kts 342°
2026-04-27 17:35 -8.12973 -34.92055 45 ft 11 kts 341°
2026-04-27 17:35 -8.12889 -34.92083 47 ft 15 kts 342°
2026-04-27 17:35 -8.12781 -34.92119 47 ft 18 kts 341°
2026-04-27 17:36 -8.12656 -34.92159 48 ft 20 kts 342°
2026-04-27 17:36 -8.12514 -34.92206 47 ft 23 kts 342°
2026-04-27 17:36 -8.12350 -34.92260 46 ft 26 kts 341°
2026-04-27 17:36 -8.12167 -34.92320 43 ft 30 kts 342°
2026-04-27 17:37 -8.11959 -34.92389 40 ft 32 kts 341°
2026-04-27 17:37 -8.11742 -34.92460 39 ft 33 kts 342°
2026-04-27 17:37 -8.11545 -34.92566 44 ft 32 kts 319°
2026-04-27 17:37 -8.11465 -34.92691 43 ft 16 kts 207°
2026-04-27 17:38 -8.11624 -34.92651 41 ft 47 kts 161°
2026-04-27 17:38 -8.12144 -34.92479 43 ft 108 kts 162°
2026-04-27 17:38 -8.13028 -34.92190 95 ft 155 kts 161°
2026-04-27 17:38 -8.14153 -34.91820 421 ft 187 kts 160°
2026-04-27 17:39 -8.15554 -34.91410 887 ft 234 kts 165°
2026-04-27 17:39 -8.17254 -34.90909 1515 ft 283 kts 162°
2026-04-27 17:39 -8.19335 -34.90234 1513 ft 323 kts 160°
2026-04-27 17:39 -8.21234 -34.89168 1276 ft 305 kts 137°
2026-04-27 17:40 -8.22240 -34.87500 1934 ft 270 kts 109°
2026-04-27 17:40 -8.22524 -34.85587 2730 ft 281 kts 93°
2026-04-27 17:40 -8.22110 -34.83638 3881 ft 292 kts 64°
2026-04-27 17:40 -8.20777 -34.82092 5156 ft 298 kts 36°
2026-04-27 17:41 -8.18834 -34.81412 6486 ft 300 kts
2026-04-27 17:41 -8.16827 -34.81876 7741 ft 298 kts 333°
2026-04-27 17:41 -8.15198 -34.83163 8909 ft 299 kts 316°
2026-04-27 17:41 -8.13651 -34.84584 9956 ft 304 kts 321°
2026-04-27 17:42 -8.11988 -34.85989 10669 ft 320 kts 321°
2026-04-27 17:42 -8.10273 -34.87503 11386 ft 334 kts 319°
2026-04-27 17:42 -8.08536 -34.89101 12265 ft 341 kts 318°
2026-04-27 17:42 -8.06781 -34.90737 13220 ft 346 kts 318°
2026-04-27 17:43 -8.05003 -34.92401 14151 ft 351 kts 319°
2026-04-27 17:43 -8.03196 -34.94078 15040 ft 355 kts 319°
2026-04-27 17:43 -8.01363 -34.95776 15960 ft 361 kts 319°
2026-04-27 17:43 -7.99495 -34.97493 16846 ft 366 kts 319°
2026-04-27 17:44 -7.97635 -34.99282 17651 ft 372 kts 317°
2026-04-27 17:44 -7.95761 -35.01104 18409 ft 377 kts 318°
2026-04-27 17:44 -7.93848 -35.02942 19054 ft 382 kts 318°
2026-04-27 17:44 -7.91908 -35.04794 19710 ft 387 kts 319°
2026-04-27 17:45 -7.89941 -35.06665 20343 ft 391 kts 319°
2026-04-27 17:45 -7.87981 -35.08528 20960 ft 395 kts 319°
2026-04-27 17:45 -7.85938 -35.10468 21586 ft 400 kts 319°
2026-04-27 17:45 -7.83898 -35.12404 22192 ft 405 kts 319°
2026-04-27 17:46 -7.81834 -35.14365 22774 ft 410 kts 320°
2026-04-27 17:46 -7.79750 -35.16345 23350 ft 414 kts 320°
2026-04-27 17:46 -7.77647 -35.18343 23869 ft 417 kts 320°
2026-04-27 17:46 -7.75554 -35.20330 24377 ft 420 kts 320°
2026-04-27 17:47 -7.73427 -35.22351 24875 ft 422 kts 319°
2026-04-27 17:47 -7.71981 -35.23724 25191 ft 424 kts 319°
2026-04-27 17:47 -7.69122 -35.26437 25788 ft 427 kts 319°
2026-04-27 17:47 -7.66955 -35.28493 26240 ft 430 kts 319°
2026-04-27 17:48 -7.64769 -35.30566 26688 ft 432 kts 319°
2026-04-27 17:48 -7.62572 -35.32650 27137 ft 435 kts 319°
2026-04-27 17:48 -7.60362 -35.34748 27580 ft 437 kts 319°
2026-04-27 17:48 -7.58141 -35.36855 28021 ft 440 kts 319°
2026-04-27 17:49 -7.55905 -35.38976 28435 ft 443 kts 319°
2026-04-27 17:49 -7.53689 -35.41080 28866 ft 445 kts 318°
2026-04-27 17:49 -7.51728 -35.42939 29268 ft 447 kts 318°
2026-04-27 17:49 -7.49457 -35.45092 29633 ft 449 kts 318°
2026-04-27 17:50 -7.47175 -35.47252 29995 ft 451 kts 318°
2026-04-27 17:50 -7.42584 -35.51602 30612 ft 454 kts 318°
2026-04-27 17:50 -7.40266 -35.53764 30904 ft 455 kts 320°
2026-04-27 17:51 -7.37831 -35.55813 31196 ft 456 kts 322°
2026-04-27 17:51 -7.35364 -35.57836 31482 ft 458 kts 322°
2026-04-27 17:51 -7.32993 -35.59803 31746 ft 459 kts 322°
2026-04-27 17:51 -7.30447 -35.61932 31895 ft 465 kts 321°
2026-04-27 17:52 -7.25393 -35.66186 31936 ft 481 kts 321°
2026-04-27 17:52 -7.21069 -35.69829 31987 ft 494 kts 321°
2026-04-27 17:53 -7.14950 -35.74988 32006 ft 487 kts 321°
2026-04-27 17:53 -7.09747 -35.79355 31966 ft 486 kts 322°
2026-04-27 17:54 -7.04526 -35.83679 31963 ft 486 kts 322°
2026-04-27 17:54 -6.99312 -35.88017 31957 ft 486 kts 321°
2026-04-27 17:55 -6.94110 -35.92359 31943 ft 486 kts 321°
2026-04-27 17:55 -6.88904 -35.96699 31937 ft 486 kts 322°
2026-04-27 17:56 -6.83699 -36.01035 31932 ft 486 kts 322°
2026-04-27 17:56 -6.78494 -36.05372 31930 ft 486 kts 322°
2026-04-27 17:57 -6.73330 -36.09672 31930 ft 486 kts 322°
2026-04-27 17:57 -6.68123 -36.14006 31929 ft 486 kts 322°
2026-04-27 17:58 -6.62917 -36.18338 31923 ft 486 kts 322°
2026-04-27 17:58 -6.57715 -36.22670 31917 ft 486 kts 322°
2026-04-27 17:59 -6.52505 -36.26999 31917 ft 486 kts 322°
2026-04-27 17:59 -6.47299 -36.31331 31922 ft 486 kts 322°
2026-04-27 18:00 -6.42086 -36.35666 31917 ft 486 kts 322°
2026-04-27 18:00 -6.36873 -36.39999 31912 ft 486 kts 322°
2026-04-27 18:01 -6.31666 -36.44328 31910 ft 486 kts 322°
2026-04-27 18:01 -6.26462 -36.48668 31914 ft 486 kts 322°
2026-04-27 18:02 -6.21247 -36.53001 31912 ft 486 kts 322°
2026-04-27 18:02 -6.16020 -36.57317 31919 ft 486 kts 323°
2026-04-27 18:03 -6.10765 -36.61613 31907 ft 487 kts 322°
2026-04-27 18:03 -6.05578 -36.65991 31905 ft 487 kts 322°
2026-04-27 18:04 -6.00360 -36.70341 31907 ft 488 kts 322°
2026-04-27 18:04 -5.95162 -36.74657 31901 ft 488 kts 322°
2026-04-27 18:05 -5.89923 -36.79000 31902 ft 488 kts 322°
2026-04-27 18:05 -5.84689 -36.83339 31903 ft 488 kts 322°
2026-04-27 18:06 -5.79445 -36.87685 31900 ft 488 kts 322°
2026-04-27 18:06 -5.74207 -36.92026 31898 ft 489 kts 322°
2026-04-27 18:07 -5.68968 -36.96367 31896 ft 488 kts 322°
2026-04-27 18:07 -5.63725 -37.00709 31901 ft 488 kts 322°
2026-04-27 18:08 -5.58487 -37.05045 31902 ft 488 kts 322°
2026-04-27 18:08 -5.53250 -37.09381 31908 ft 488 kts 322°
2026-04-27 18:09 -5.48021 -37.13708 31907 ft 488 kts 322°
2026-04-27 18:09 -5.42759 -37.18009 31909 ft 487 kts 323°
2026-04-27 18:10 -5.37454 -37.22239 31906 ft 487 kts 323°
2026-04-27 18:10 -5.32162 -37.26476 31911 ft 486 kts 323°
2026-04-27 18:11 -5.27774 -37.29994 31910 ft 486 kts 322°
2026-04-27 18:11 -5.22495 -37.34226 31918 ft 485 kts 322°
2026-04-27 18:12 -5.17245 -37.38469 31914 ft 485 kts 321°
2026-04-27 18:12 -5.12080 -37.42822 31913 ft 484 kts 321°
2026-04-27 18:13 -5.06912 -37.47156 31908 ft 484 kts 321°
2026-04-27 18:13 -5.01735 -37.51472 31911 ft 483 kts 322°
2026-04-27 18:14 -4.96549 -37.55772 31903 ft 484 kts 321°
2026-04-27 18:14 -4.91393 -37.60113 31906 ft 484 kts 321°
2026-04-27 18:15 -4.86223 -37.64439 31906 ft 484 kts 321°
2026-04-27 18:15 -4.81054 -37.68754 31907 ft 484 kts 321°
2026-04-27 18:16 -4.75979 -37.72994 31878 ft 462 kts 321°
2026-04-27 18:16 -4.73534 -37.75036 31841 ft 441 kts 322°
2026-04-27 18:16 -4.71259 -37.76935 31888 ft 422 kts 322°
2026-04-27 18:17 -4.66760 -37.80686 31929 ft 426 kts 322°
2026-04-27 18:17 -4.62177 -37.84506 31945 ft 430 kts 322°
2026-04-27 18:18 -4.57581 -37.88340 31907 ft 430 kts 322°
2026-04-27 18:18 -4.52997 -37.92162 31914 ft 429 kts 322°
2026-04-27 18:19 -4.48412 -37.95986 31912 ft 429 kts 322°
2026-04-27 18:19 -4.43471 -37.99282 31921 ft 427 kts 330°
2026-04-27 18:20 -4.40910 -38.00821 31428 ft 435 kts 330°
2026-04-27 18:20 -4.38343 -38.02370 30667 ft 427 kts 330°
2026-04-27 18:20 -4.35818 -38.03906 29877 ft 425 kts 330°
2026-04-27 18:20 -4.33283 -38.05453 28888 ft 428 kts 330°
2026-04-27 18:21 -4.30725 -38.07017 27947 ft 432 kts 330°
2026-04-27 18:21 -4.28158 -38.08588 27043 ft 432 kts 330°
2026-04-27 18:21 -4.25636 -38.10195 26162 ft 427 kts 328°
2026-04-27 18:21 -4.23196 -38.11853 25311 ft 422 kts 328°
2026-04-27 18:22 -4.20781 -38.13491 24487 ft 417 kts 328°
2026-04-27 18:22 -4.18385 -38.15102 23673 ft 412 kts 328°
2026-04-27 18:22 -4.16012 -38.16687 22749 ft 408 kts 328°
2026-04-27 18:22 -4.13662 -38.18253 21820 ft 402 kts 328°
2026-04-27 18:23 -4.11356 -38.19788 20918 ft 396 kts 328°
2026-04-27 18:23 -4.09082 -38.21302 20054 ft 389 kts 327°
2026-04-27 18:23 -4.06842 -38.22792 19207 ft 384 kts 327°
2026-04-27 18:23 -4.04621 -38.24251 18375 ft 379 kts 327°
2026-04-27 18:24 -4.02429 -38.25700 17468 ft 374 kts 327°
2026-04-27 18:24 -4.00293 -38.27136 16547 ft 369 kts 326°
2026-04-27 18:24 -3.98175 -38.28563 15639 ft 363 kts 324°
2026-04-27 18:24 -3.96400 -38.30358 14717 ft 364 kts 302°
2026-04-27 18:25 -3.95405 -38.32691 13795 ft 367 kts 284°
2026-04-27 18:25 -3.94890 -38.35159 12630 ft 359 kts 279°
2026-04-27 18:25 -3.94391 -38.37593 11400 ft 355 kts 282°
2026-04-27 18:25 -3.93774 -38.39953 10715 ft 339 kts 285°
2026-04-27 18:26 -3.93123 -38.42105 10292 ft 317 kts 287°
2026-04-27 18:26 -3.92484 -38.44152 9924 ft 303 kts 286°
2026-04-27 18:26 -3.91855 -38.46157 9546 ft 301 kts 287°
2026-04-27 18:26 -3.91229 -38.48157 9151 ft 299 kts 287°
2026-04-27 18:27 -3.90603 -38.50135 8753 ft 297 kts 287°
2026-04-27 18:27 -3.89970 -38.52100 8368 ft 295 kts 287°
2026-04-27 18:27 -3.89344 -38.54050 7978 ft 294 kts 287°
2026-04-27 18:27 -3.88720 -38.55988 7676 ft 289 kts 287°
2026-04-27 18:28 -3.88094 -38.57923 7312 ft 289 kts 286°
2026-04-27 18:28 -3.87478 -38.59844 6915 ft 290 kts 287°
2026-04-27 18:28 -3.86853 -38.61763 6535 ft 289 kts 287°
2026-04-27 18:28 -3.86246 -38.63647 6151 ft 288 kts 286°
2026-04-27 18:29 -3.85639 -38.65551 5780 ft 286 kts 288°
2026-04-27 18:29 -3.84994 -38.67431 5419 ft 285 kts 288°
2026-04-27 18:29 -3.84360 -38.69307 5045 ft 284 kts 287°
2026-04-27 18:29 -3.83712 -38.71171 4671 ft 283 kts 293°
2026-04-27 18:30 -3.82509 -38.72699 4267 ft 282 kts 326°
2026-04-27 18:30 -3.80694 -38.73318 3959 ft 276 kts 359°
2026-04-27 18:30 -3.78852 -38.72924 3655 ft 271 kts 26°
2026-04-27 18:30 -3.77191 -38.72023 3279 ft 272 kts 30°
2026-04-27 18:31 -3.75504 -38.71191 2972 ft 266 kts 28°
2026-04-27 18:31 -3.74152 -38.70095 2721 ft 239 kts 58°
2026-04-27 18:31 -3.73715 -38.68636 2565 ft 206 kts 91°
2026-04-27 18:31 -3.73945 -38.67299 2312 ft 186 kts 104°
2026-04-27 18:32 -3.74264 -38.66108 2125 ft 168 kts 107°
2026-04-27 18:32 -3.74549 -38.65045 2033 ft 147 kts 103°
2026-04-27 18:32 -3.74740 -38.64108 1940 ft 134 kts 103°
2026-04-27 18:32 -3.74988 -38.63215 1794 ft 133 kts 105°
2026-04-27 18:33 -3.75224 -38.62318 1628 ft 133 kts 102°
2026-04-27 18:33 -3.75455 -38.61429 1449 ft 132 kts 104°
2026-04-27 18:33 -3.75700 -38.60553 1280 ft 132 kts 105°
2026-04-27 18:33 -3.75936 -38.59664 1119 ft 133 kts 103°
2026-04-27 18:34 -3.76163 -38.58773 948 ft 132 kts 104°
2026-04-27 18:34 -3.76412 -38.57881 783 ft 132 kts 106°
2026-04-27 18:34 -3.76645 -38.56996 629 ft 129 kts 101°
2026-04-27 18:34 -3.76860 -38.56122 456 ft 128 kts 104°
2026-04-27 18:35 -3.77105 -38.55274 284 ft 126 kts 103°
2026-04-27 18:35 -3.77319 -38.54418 140 ft 128 kts 103°
2026-04-27 18:35 -3.77533 -38.53627 92 ft 102 kts 105°
2026-04-27 18:35 -3.77674 -38.53104 90 ft 55 kts 104°
2026-04-27 18:36 -3.77757 -38.52778 92 ft 46 kts 105°
2026-04-27 18:36 -3.77814 -38.52610 92 ft 13 kts 139°
2026-04-27 18:36 -3.77867 -38.52647 91 ft 11 kts 244°
2026-04-27 18:36 -3.77903 -38.52720 92 ft 13 kts 243°
2026-04-27 18:37 -3.77905 -38.52810 91 ft 14 kts 284°
2026-04-27 18:37 -3.77878 -38.52910 91 ft 16 kts 285°
2026-04-27 18:37 -3.77847 -38.53023 91 ft 18 kts 285°
2026-04-27 18:37 -3.77812 -38.53148 90 ft 19 kts 286°
2026-04-27 18:38 -3.77775 -38.53281 91 ft 21 kts 284°
2026-04-27 18:38 -3.77741 -38.53426 93 ft 22 kts 283°
2026-04-27 18:38 -3.77701 -38.53579 90 ft 23 kts 286°
2026-04-27 18:38 -3.77662 -38.53738 91 ft 23 kts 266°
2026-04-27 18:39 -3.77739 -38.53861 92 ft 15 kts 214°
2026-04-27 18:39 -3.77813 -38.53914 90 ft 12 kts 218°
2026-04-27 18:39 -3.77832 -38.53929 91 ft 0 kts 217°